Lexington Weather

Lexington, Massachusetts, USA

43°F
11/27/2020 3:54am 
  • Lexington Conditions: Fog, Overcast
  • Temperature: 42.6°F / 5.9°CWarmer 2.9°F than last hour.
  • Dew Point: 41.9°FIncreased 2.9°Fsince last hour.
  • Relative Humidity: 97
  • Wind: Calm, 10-min avg: Calm, gust: None
  • Barometer: 29.97 in Steady
  • Visibility: ½ mile
  • Rain Today: 0.00 in
  •   
Southeast Middlesex County - Special Weather Statement - Special Weather Statement
 - SEE ALL NEARBY ALERTS -

Regional Weather Roundup
for Boston / Norton, MA

        
000
ASUS41 KBOX 261604
RWRBOX

REGIONAL WEATHER ROUNDUP
NATIONAL WEATHER SERVICE BOSTON/NORTON MA
1100 AM EST THU NOV 26 2020

NOTE:  "FAIR" INDICATES FEW OR NO CLOUDS BELOW 12,000 FEET WITH NO 
SIGNIFICANT WEATHER AND/OR OBSTRUCTIONS TO VISIBILITY.

MAZALL-261700-
EASTERN MASSACHUSETTS
  
CITY           SKY/WX    TMP DP  RH WIND       PRES   REMARKS
BOSTON         LGT RAIN  55  54  96 S9        30.04F FOG              
BEVERLY        LGT RAIN  57  55  93 S9        30.03F                  
LAWRENCE       CLOUDY    45  44  97 CALM      30.05F FOG              
BEDFORD        LGT RAIN  46  45  96 NW5       30.03F VSB 3/4          
BLUE HILL        N/A     56  56 100 S15       30.03F                  
NORWOOD        LGT RAIN  60  57  89 S5        30.03F FOG              
MARSHFIELD     RAIN      61  61 100 S9        30.05F VSB 1            
PLYMOUTH       LGT RAIN  60  57  89 S10G21    30.06F                  
TAUNTON        LGT RAIN  62  58  86 SW10      30.05F                  
NEW BEDFORD    LGT RAIN  61  59  93 S14       30.05F                  
$$

MAZALL-261700-
CAPE COD AND THE ISLANDS
  
CITY           SKY/WX    TMP DP  RH WIND       PRES   REMARKS
FALMOUTH       LGT RAIN  59  59 100 S12G21    30.08F FOG              
HYANNIS        LGT RAIN  57  56  96 S13       30.07F FOG              
CHATHAM        LGT RAIN  57  54  89 S9G18     30.12F                  
NANTUCKET      CLOUDY    57  55  93 S15       30.11F                  
MARTHAS VNYRD  LGT RAIN  60  59  96 S16G24    30.08F FOG              
$$
 
MAZALL-261700-
CENTRAL AND WESTERN MASSACHUSETTS
  
CITY           SKY/WX    TMP DP  RH WIND       PRES   REMARKS
WORCESTER      LGT RAIN  56  54  93 S12       30.01F                  
FITCHBURG      LGT RAIN  41  39  93 CALM      30.03F FOG              
ORANGE         LGT RAIN  49  49 100 CALM      29.98F FOG              
SPRINGFIELD    LGT RAIN  47  47 100 NW5       29.97F                  
WESTFIELD      LGT RAIN  43  43 100 NE6       29.99F FOG              
NORTH ADAMS    CLOUDY    55  51  86 E8        29.95F                  
PITTSFIELD     LGT RAIN  49  48  97 N5        29.94F VSB 1/2          
$$
 
RIZALL-261700-
RHODE ISLAND
  
CITY           SKY/WX    TMP DP  RH WIND       PRES   REMARKS
PROVIDENCE     LGT RAIN  60  59  96 S13       30.04F FOG              
NEWPORT        LGT RAIN  59  59 100 S14G23    30.05F FOG              
BLOCK ISLAND   CLOUDY    58  57  97 SW16G23   30.05F                  
SMITHFIELD     LGT RAIN  58  58 100 VRB6      30.03F                  
WESTERLY       LGT RAIN  58  56  93 S7        30.04F FOG              
$$
 
CTZALL-261700-
CONNECTICUT
  
CITY           SKY/WX    TMP DP  RH WIND       PRES   REMARKS
BRADLEY INTL   LGT RAIN  49  48  97 CALM      29.98F FOG              
HARTFORD       CLOUDY    61  56  83 S14G24    29.99F                  
BRIDGEPORT     CLOUDY    60  57  89 S17       29.99F                  
DANBURY        CLOUDY    60  57  89 S9        29.98F                  
GROTON         CLOUDY    59  57  93 SW13      30.03F FOG              
NEW HAVEN      CLOUDY    60  57  89 S14G21    29.99F                  
CHESTER        CLOUDY    59  59 100 S9G23     30.01F                  
MERIDEN        CLOUDY    60  56  86 S12G22    29.99F                  
WILLIMANTIC    LGT RAIN  59  57  93 S12       30.01F FOG              
OXFORD         LGT RAIN  58  58 100 S9G17     29.99F FOG              
$$

MEZ002-015-021-024-NHZ003-005-008-011-012-014-VTZ005-008-261700-
NORTHERN NEW ENGLAND
  
CITY           SKY/WX    TMP DP  RH WIND       PRES   REMARKS
PORTLAND ME    LGT RAIN  37  37 100 N7        30.08F FOG     WCI  32  
BANGOR ME      LGT RAIN  34  32  92 N6        30.14F VSB 3/4 WCI  29  
CONCORD NH     CLOUDY    37  36  96 CALM      30.05F FOG              
MANCHESTER NH  CLOUDY    39  36  89 N7        30.04F FOG              
NASHUA NH      LGT RAIN  39  39 100 N3        30.05F                  
PORTSMOUTH NH  LGT RAIN  43  42  99 NW6       30.03F VSB 1/2          
JAFFREY NH     LGT RAIN  37  35  92 CALM      30.02F                  
KEENE NH       LGT RAIN  41  41 100 CALM      30.00F FOG              
BURLINGTON VT  CLOUDY    46  43  89 SE7       29.92F                  
MT. WASHINGTON FOG       34  34 100 SW40        N/A  VSB 1/16WCI  18  
$$

NYZ052-076-261700-
EASTERN NEW YORK
  
CITY           SKY/WX    TMP DP  RH WIND       PRES   REMARKS
ALBANY         LGT RAIN  51  51 100 S9        29.95F FOG              
NEW YORK CITY  PTSUNNY   64  59  83 S10       29.97F                  
$$
 
ANZALL-261700-
MARINE OBSERVATIONS
  
STATION/POSITION TIME  TEMP    WIND        PRES    VSBY  WAVE
                       AIR SEA DIR/SP/G                  HT/PER
                 (UTC) (F)     (DEG/KT/KT) (MB)    (MI)  (FT/S)
BOSTON BUOY      1540   52 50  160/ 14/ 16 1018.3F
BUZZARDS BAY     1500          190/ 23/ 27 1019.2F
NANTUCKET SOUND  1550      51  170/ 16/ 19   N/A           2/ 4
MASS BAY-STELLWA NOT AVBL
ISLE OF SHOALS   1500   52     150/ 19/ 21 1017.5F
S OF BLOCK IS    1526      57                N/A           5/ 6
$$

......................KEY.........................
  SKY/WX - SKY CONDITION/PRESENT WEATHER
  TMP    - TEMPERATURE IN FAHRENHEIT
  DWPT   - DEWPOINT IN FAHRENHEIT
  RH     - RELATIVE HUMIDITY IN PERCENT
  WIND   - DIRECTION AND SPEED IN MPH
  PRES   - MEAN SEA LEVEL PRESSURE IN INCHES OF HG
  WCI    - WIND CHILL INDEX
  VSB    - VISIBILITY IN MILES
  HX     - HEAT INDEX
  TC     - TEMPERATURE IN CELSIUS
  VRB    - VARIABLE WIND DIRECTION
  N/A    - NOT AVAILABLE
  
      

Other recent Regional Weather Roundups

Fri Nov 27, 1:04am

Fri Nov 27, 12:04am

Thu Nov 26, 11:04pm

Thu Nov 26, 10:04pm

Thu Nov 26, 9:04pm

Thu Nov 26, 8:04pm

Thu Nov 26, 7:04pm

Thu Nov 26, 6:04pm

Thu Nov 26, 5:04pm

Thu Nov 26, 4:04pm

Thu Nov 26, 2:04pm

Thu Nov 26, 1:04pm

Thu Nov 26, 12:04pm

Thu Nov 26, 10:04am

Thu Nov 26, 9:04am

Thu Nov 26, 8:04am

Thu Nov 26, 7:04am

Thu Nov 26, 6:04am

Thu Nov 26, 5:04am

Thu Nov 26, 4:04am

Thu Nov 26, 3:04am

Thu Nov 26, 2:04am

Thu Nov 26, 1:04am

Thu Nov 26, 12:04am

Wed Nov 25, 11:04pm

Wed Nov 25, 10:04pm

Wed Nov 25, 9:04pm

Wed Nov 25, 8:04pm

Wed Nov 25, 7:04pm

Wed Nov 25, 6:04pm

Wed Nov 25, 5:04pm

Wed Nov 25, 4:04pm

Wed Nov 25, 3:05pm

Wed Nov 25, 2:04pm

Wed Nov 25, 1:04pm

Wed Nov 25, 12:05pm

Wed Nov 25, 11:04am

Wed Nov 25, 10:04am

Wed Nov 25, 9:04am

Wed Nov 25, 8:04am

Wed Nov 25, 7:04am

Wed Nov 25, 6:04am

Wed Nov 25, 5:04am

Wed Nov 25, 4:04am

Wed Nov 25, 3:04am

Wed Nov 25, 2:04am

Wed Nov 25, 1:04am

Wed Nov 25, 12:04am

Tue Nov 24, 11:04pm

Tue Nov 24, 10:04pm

Tue Nov 24, 9:04pm

Tue Nov 24, 8:04pm

Tue Nov 24, 7:04pm

Tue Nov 24, 6:04pm

Tue Nov 24, 5:04pm

Tue Nov 24, 4:05pm

Tue Nov 24, 3:05pm

Tue Nov 24, 2:05pm

Tue Nov 24, 1:05pm

Tue Nov 24, 12:04pm

Tue Nov 24, 11:04am

Tue Nov 24, 10:04am

Tue Nov 24, 9:04am

Tue Nov 24, 8:04am

Tue Nov 24, 7:04am

Tue Nov 24, 6:04am

Tue Nov 24, 5:04am

Tue Nov 24, 4:05am

Tue Nov 24, 3:04am

Tue Nov 24, 2:04am

Tue Nov 24, 1:04am

Tue Nov 24, 12:05am

Mon Nov 23, 11:04pm

Mon Nov 23, 10:04pm

Mon Nov 23, 9:04pm

Mon Nov 23, 8:04pm

Mon Nov 23, 7:04pm

Mon Nov 23, 6:04pm

Mon Nov 23, 5:04pm

Mon Nov 23, 4:04pm

Mon Nov 23, 3:04pm

Mon Nov 23, 2:04pm

Mon Nov 23, 1:04pm

Mon Nov 23, 12:04pm

Mon Nov 23, 11:04am

Mon Nov 23, 10:04am

Mon Nov 23, 9:04am

Mon Nov 23, 8:05am

Mon Nov 23, 7:04am

Mon Nov 23, 6:04am

Mon Nov 23, 5:04am

Mon Nov 23, 4:04am

Mon Nov 23, 3:04am

Mon Nov 23, 2:04am

Mon Nov 23, 1:04am

Mon Nov 23, 12:05am

Sun Nov 22, 11:04pm

Sun Nov 22, 10:04pm

Sun Nov 22, 9:04pm

Sun Nov 22, 8:05pm

Sun Nov 22, 7:04pm

Sun Nov 22, 6:04pm

Sun Nov 22, 5:04pm

Sun Nov 22, 4:04pm

Sun Nov 22, 3:04pm

Sun Nov 22, 2:04pm

Sun Nov 22, 1:05pm

Sun Nov 22, 12:04pm

Sun Nov 22, 11:04am

Sun Nov 22, 10:05am

Sun Nov 22, 9:04am

Sun Nov 22, 8:04am

Sun Nov 22, 7:04am

Sun Nov 22, 6:04am

Sun Nov 22, 5:04am

Sun Nov 22, 4:04am

Sun Nov 22, 3:04am

Sun Nov 22, 2:04am

Sun Nov 22, 1:04am

Sun Nov 22, 12:04am

Sat Nov 21, 11:04pm

Sat Nov 21, 10:04pm

Sat Nov 21, 9:04pm

Sat Nov 21, 8:05pm

Sat Nov 21, 7:04pm

Sat Nov 21, 6:04pm

Sat Nov 21, 5:04pm

Sat Nov 21, 4:05pm

Sat Nov 21, 3:04pm

Sat Nov 21, 2:04pm

Sat Nov 21, 1:05pm

Sat Nov 21, 12:04pm

Sat Nov 21, 11:04am

Sat Nov 21, 10:04am

Sat Nov 21, 9:04am

Sat Nov 21, 8:04am

Sat Nov 21, 7:04am

Sat Nov 21, 6:04am

Sat Nov 21, 5:04am

Sat Nov 21, 4:04am

Sat Nov 21, 3:04am

Sat Nov 21, 2:04am

Sat Nov 21, 1:04am

Sat Nov 21, 12:04am

Fri Nov 20, 11:04pm

Fri Nov 20, 10:04pm

Fri Nov 20, 9:04pm

Fri Nov 20, 8:04pm

Fri Nov 20, 7:04pm

Fri Nov 20, 6:04pm

Fri Nov 20, 5:04pm

Fri Nov 20, 4:05pm

Fri Nov 20, 3:05pm

Fri Nov 20, 2:04pm

Fri Nov 20, 1:04pm

Fri Nov 20, 12:04pm

Fri Nov 20, 11:04am

Fri Nov 20, 10:04am

Fri Nov 20, 9:04am

Fri Nov 20, 8:04am

Fri Nov 20, 7:04am

Fri Nov 20, 6:04am

Fri Nov 20, 5:04am

Fri Nov 20, 4:04am

Meta data:

ID: 8bef7a6d-0b30-4983-9da1-26a07167748d
Link: https://api.weather.gov/products/8bef7a6d-0b30-4983-9da1-26a07167748d